Chicago DuPage, IL

7:36 AM CDT on May 24, 2017 (GMT -0500)
Du Page

Weather History for KDPA - January, 2013

Change the Weather History Date:

Tuesday, January 1, 2013

  Actual Average Record
Temperature  
Mean Temperature 15 °F 24 °F  
Max Temperature 23 °F 32 °F 47 °F (2000)
Min Temperature 7 °F 16 °F 1 °F (2010)
Degree Days  
Heating Degree Days 50 41  
Month to date heating degree days 50 41  
Since 1 July heating degree days 2426 2468  
Cooling Degree Days 0 0  
Month to date cooling degree days 0 0  
Year to date cooling degree days 0 0  
Moisture  
Dew Point 5 °F    
Average Humidity 65    
Maximum Humidity 80    
Minimum Humidity 46    
Precipitation  
Precipitation 0.00 in 0.06 in 0.40 in (2005)
Month to date precipitation 0.00 0.06  
Year to date precipitation 0.00 0.06  
Sea Level Pressure  
Sea Level Pressure 30.20 in    
Wind  
Wind Speed 8 mph (NW)    
Max Wind Speed 15 mph    
Max Gust Speed 18 mph    
Visibility 10 miles    
Events      
T = Trace of Precipitation, MM = Missing Value Source: NWS Daily Summary

Daily Weather History Graph

Daily Weather History Graph

Search for Another Location

Airport or City:

Trip Planner

Search our weather history database for the weather conditions in past years. The results will help you decide how hot, cold, wet, or windy it might be!

Date:

Astronomy

Jan. 01, 2013 Rise Set
Actual Time 7:20 AM CST 4:32 PM CST
Civil Twilight 6:49 AM CST 5:04 PM CST
Nautical Twilight 6:14 AM CST 5:39 PM CST
Astronomical Twilight 5:40 AM CST 6:13 PM CST
Moon 9:08 PM CST (1/1) 9:28 AM CST (1/1)
Length of Visible Light 10h 15m
Length of Day
9h 12m
Waning Gibbous, 83% of the Moon is Illuminated
Jan 1
Waning Gibbous
Jan 4
Last Quarter
Jan 11
New
Jan 18
First Quarter
Jan 26
Full

Hourly Weather History & Observations

Time (CST) Temp. Windchill Dew Point Humidity Pressure Visibility Wind Dir Wind Speed Gust Speed Precip Events Conditions
12:52 AM 19.0 °F 6.8 °F 9.0 °F 65% 30.15 in 10.0 mi North 11.5 mph - N/A   Overcast
1:52 AM 18.0 °F 4.8 °F 9.0 °F 68% 30.15 in 10.0 mi NNW 12.7 mph - N/A   Overcast
2:52 AM 17.1 °F 4.3 °F 8.1 °F 68% 30.16 in 10.0 mi North 11.5 mph - N/A   Overcast
3:52 AM 15.1 °F 1.8 °F 7.0 °F 70% 30.17 in 10.0 mi NNW 11.5 mph - N/A   Mostly Cloudy
4:52 AM 12.9 °F 0.7 °F 6.1 °F 74% 30.19 in 10.0 mi NNW 9.2 mph - N/A   Partly Cloudy
5:52 AM 12.0 °F 0.5 °F 5.0 °F 73% 30.20 in 10.0 mi NNW 8.1 mph - N/A   Clear
6:52 AM 10.9 °F -1.8 °F 5.0 °F 77% 30.22 in 10.0 mi NNW 9.2 mph - N/A   Clear
7:52 AM 10.0 °F -2.9 °F 3.9 °F 76% 30.23 in 10.0 mi NNW 9.2 mph - N/A   Clear
9:52 AM 17.1 °F 3.0 °F 6.1 °F 62% 30.22 in 10.0 mi North 13.8 mph - N/A   Clear
10:52 AM 19.9 °F 13.4 °F 5.0 °F 52% 30.24 in 10.0 mi NNE 4.6 mph - N/A   Clear
11:52 AM 21.9 °F 15.7 °F 3.9 °F 46% 30.22 in 10.0 mi North 4.6 mph - N/A   Clear
12:52 PM 21.9 °F 13.4 °F 5.0 °F 48% 30.21 in 10.0 mi WNW 6.9 mph - N/A   Clear
1:52 PM 21.9 °F 11.7 °F 5.0 °F 48% 30.19 in 10.0 mi NNW 9.2 mph - N/A   Clear
2:52 PM 21.0 °F 10.6 °F 6.1 °F 53% 30.19 in 10.0 mi NNW 9.2 mph - N/A   Clear
3:52 PM 19.0 °F 8.2 °F 5.0 °F 54% 30.19 in 10.0 mi NW 9.2 mph - N/A   Clear
4:52 PM 16.0 °F 5.3 °F 3.9 °F 59% 30.19 in 10.0 mi NW 8.1 mph - N/A   Clear
5:52 PM 14.0 °F 5.1 °F 5.0 °F 67% 30.22 in 10.0 mi NW 5.8 mph - N/A   Clear
6:52 PM 12.0 °F 2.7 °F 3.9 °F 70% 30.23 in 10.0 mi WNW 5.8 mph - N/A   Clear
7:52 PM 10.0 °F 1.8 °F 3.9 °F 76% 30.23 in 10.0 mi West 4.6 mph - N/A   Clear
8:52 PM 10.0 °F -0.9 °F 1.9 °F 70% 30.23 in 10.0 mi WNW 6.9 mph - N/A   Clear
9:52 PM 9.0 °F -0.9 °F 1.0 °F 70% 30.22 in 10.0 mi WNW 5.8 mph - N/A   Clear
10:52 PM 8.1 °F 1.4 °F 1.0 °F 73% 30.21 in 10.0 mi WNW 3.5 mph - N/A   Clear
11:52 PM 7.0 °F -3.3 °F 1.9 °F 80% 30.21 in 10.0 mi West 5.8 mph - N/A   Clear